Regional Weather Roundup
Issued by NWS

Home | Current Version | Previous Version | Graphics & Text | Print | Product List | Glossary On
Versions: 1 2 3 4 5 6 7 8 9 10 11 12 13 14 15 16 17 18 19 20 21 22 23 24 25 26 27 28 29 30 31 32 33 34 35 36 37 38 39 40 41 42 43 44 45 46 47 48 49 50
000
ASUS43 KMPX 220210
RWRMN
WEATHER ROUNDUP FOR MINNESOTA
NATIONAL WEATHER SERVICE TWIN CITIES/CHANHASSEN MN
900 PM CDT MON AUG 21 2017


NOTE: "FAIR" INDICATES FEW OR NO CLOUDS BELOW 12,000 FEET WITH NO
SIGNIFICANT WEATHER AND/OR OBSTRUCTIONS TO VISIBILITY. N/A MEANS
CURRENT SKY AND/OR WEATHER CONDITIONS ARE NOT AVAILABLE.

MNZ060>063-068>070-220300-
   Twin Cities Metro

CITY           SKY/WX    TMP DP  RH WIND       PRES   REMARKS
TWIN CITIES    CLOUDY    69  63  81 SW8       29.86F
ST PAUL        CLOUDY    69  65  86 W8        29.86F
CRYSTAL        MOCLDY    69  61  75 SW12G17   29.84S
BLAINE         PTCLDY    72  64  78 SW6       29.85F
LAKEVILLE      CLOUDY    64  64 100 SW6       29.88R
EDEN PRAIRIE   CLOUDY    68  64  87 SW8       29.86S
SOUTH ST PAUL  CLOUDY    69  66  89 W7        29.86S
LAKE ELMO      FAIR      68  64  88 SW10      29.87S
$$
MNZ001>005-007-008-013>017-022>024-027-028-220300-
   Northwest Minnesota

CITY           SKY/WX    TMP DP  RH WIND       PRES   REMARKS
BEMIDJI        MOCLDY    59  59 100 CALM      29.88S
HALLOCK        CLEAR     61  54  77 NW9       29.96R
ROSEAU         MOCLDY    61  55  82 NW6       29.92S
WARROAD        CLOUDY    61  55  82 NW7       29.92S
THIEF RVR FALL LGT RAIN  61  55  82 W5        29.93R
CROOKSTON      CLOUDY    59  54  82 N5        29.94R
FOSSTON        PTCLDY    61  55  82 W5        29.91R
DETROIT LAKES  MOCLDY    66  59  77 NW9       29.92R
MOORHEAD       PTCLDY    63  55  77 NW7       29.93R
PARK RAPIDS    RAIN      64  61  90 N8        29.87R FOG
MAHNOMEN       FAIR      59  56  91 NW7       29.90R
$$
MNZ006-009>011-018-025>026-220300-
   North Central Minnesota

CITY           SKY/WX    TMP DP  RH WIND       PRES   REMARKS
BAUDETTE       PTCLDY    58  57  97 SE3       29.87S
FLAG ISLAND    CLOUDY    61  54  77 N5        29.90S
WASKISH        PTCLDY    55  54  94 CALM      29.89S FOG
BIG FORK       CLOUDY    55  54  94 CALM      29.88R
LONGVILLE      CLOUDY    63  57  82 N5        29.86R
GRAND RAPIDS   CLOUDY    62  58  86 N6        29.86F
ORR            LGT RAIN  55  52  88 CALM      29.85F
COOK           LGT RAIN  59  55  88 NE3       29.87F
WALKER         CLOUDY    61  57  87 CALM      29.88R
$$
MNZ012-019>021-037-220300-
   Northeast Minnesota

CITY           SKY/WX    TMP DP  RH WIND       PRES   REMARKS
DULUTH         LGT RAIN  60  60 100 CALM      29.82F
ELY            CLOUDY    59  52  77 CALM      29.87S
HIBBING        CLOUDY    59  56  89 N6        29.86S
EVELETH        LGT RAIN  60  55  83 NW7       29.87S
DULUTH HARBOR  LGT RAIN  61  61 100 NE12      29.82S
TWO HARBORS    RAIN      61  55  82 NE6       29.81F
SILVER BAY     RAIN      59  57  94 NE3       29.81F
GRAND MARAIS     N/A     60  57  89 CALM      29.83F
G MARAIS ARPRT CLOUDY    57  52  82 CALM      29.87F
$$
MNZ029>031-032-039>041-046>048-054>057-064-220300-
   West Central Minnesota

CITY           SKY/WX    TMP DP  RH WIND       PRES   REMARKS
FERGUS FALLS   PTCLDY    64  59  82 NW8       29.91R
WHEATON        CLEAR     66  59  77 NW8       29.94R
MORRIS         CLEAR     64  63  94 W8        29.91R
ALEXANDRIA     CLEAR     65  62  90 W10       29.90F
ELBOW LAKE     FAIR      63  60  91 NW7       29.91S
WADENA         CLEAR     63  61  94 W5        29.87S
GLENWOOD       CLEAR     64  63  94 W8        29.90S
APPLETON       CLEAR     63  59  88 W6        29.92R
BENSON         CLEAR     64  61  88 W6        29.93R
ORTONVILLE     CLEAR     68  61  77 MISG      29.93R
MADISON        CLEAR     68  68 100 W3        29.94R
WILLMAR        FAIR      66  64  94 W8        29.92R
$$
MNZ033>034-036-042>043-049>051-058-059-220300-
   Central Minnesota

CITY           SKY/WX    TMP DP  RH WIND       PRES   REMARKS
ST CLOUD       CLOUDY    67  66  97 W8        29.85S
SAUK CENTRE    MOCLDY    65  63  91 W6        29.89S
PAYNESVILLE    PTCLDY    65  64  96 W7        29.90R
AITKIN         CLOUDY    66  63  88 SW6       29.81F
PINE RIVER     CLOUDY    63  57  82 N5        29.89R THUNDER
BRAINERD       CLOUDY    68  64  87 W8        29.84F
STAPLES        MOCLDY    64  63  94 W6        29.86S
LONG PRAIRIE   MOCLDY    64  61  88 SW5       29.88F
LITTLE FALLS   MOCLDY    66  61  82 W5        29.86S
LITCHFIELD     CLOUDY    70  66  88 W8        29.90R
BUFFALO        CLOUDY    68  63  83 SW7       29.87S
MAPLE LAKE     CLOUDY    69  66  89 SW9       29.88R
HUTCHINSON     PTCLDY    68  66  93 SW10G17   29.91R
$$
MNZ037-044-045-052-053-220300-
   East Central Minnesota

CITY           SKY/WX    TMP DP  RH WIND       PRES   REMARKS
PRINCETON      CLOUDY    68  64  88 SW6       29.85S
MORA           CLOUDY    68  63  83 SW6       29.84F
CAMBRIDGE      PTCLDY    70  61  73 SW5       29.84F
RUSH CITY      CLOUDY    68  63  83 SW6       29.83F
MOOSE LAKE     CLOUDY    68  63  83 SW3       29.79F
HINCKLEY       MOCLDY    68  66  94 SW7       29.82F
CLOQUET        DRIZZLE   63  61  94 CALM      29.81F
MCGREGOR       CLOUDY    68  63  83 W5        29.82F
$$
MNZ071>073-080-081-089-090-097-098-220300-
   Southwest Minnesota

CITY           SKY/WX    TMP DP  RH WIND       PRES   REMARKS
MONTEVIDEO     CLEAR     64  64 100 CALM      29.93R
GRANITE FALLS  CLEAR     66  65  96 SW7       29.94R
CANBY          CLEAR     67  62  83 CALM      29.95S
MARSHALL       CLOUDY    67  63  87 SW8       29.95R
REDWOOD FALLS  CLOUDY    69  63  81 W10       29.92R
OLIVIA         PTCLDY    64  63  94 SW7       29.92R
PIPESTONE      MOCLDY    66  64  94 W5        29.99S
WINDOM         CLOUDY    66  63  88 W9        29.96S
WORTHINGTON    CLOUDY    65  63  93 W9        29.97F
JACKSON        CLOUDY    64  61  88 W8        29.96F
TRACY          CLOUDY    68  66  93 SW8       29.96S
SLAYTON        CLOUDY    66  61  84 SW8       29.99R
$$
MNZ065>067-074>077-082>085-091>093-220300-
   South Central Minnesota

CITY           SKY/WX    TMP DP  RH WIND       PRES   REMARKS
MANKATO        CLOUDY    66  63  90 W14       29.92R
NEW ULM        CLOUDY    66  63  88 W10       29.92R
ST JAMES         N/A     66  63  88 W10       29.94R
FAIRMONT       CLOUDY    66  63  90 W12       29.94R
GLENCOE        CLOUDY    69  67  92 SW9G20    29.88R
FARIBAULT      CLOUDY    66  64  94 SW10G16   29.91R
OWATONNA       CLOUDY    64  63  94 W6        29.92R
WASECA         CLOUDY    63  61  94 W8        29.93R
ALBERT LEA     CLOUDY    66  66 100 CALM      29.92R
$$
MNZ078>079-086>088-094>096-220300-
   Southeast Minnesota

CITY           SKY/WX    TMP DP  RH WIND       PRES   REMARKS
ROCHESTER      CLOUDY    64  64 100 W10       29.92R
RED WING       CLOUDY    68  64  88 W5        29.86R
STANTON        MOCLDY    67  64  89 W6        29.88R
DODGE CENTER   CLOUDY    64  61  88 W8        29.92R
WINONA         CLOUDY    68  64  88 CALM      29.86R
AUSTIN         CLOUDY    64  63  94 SW8       29.90R
PRESTON        CLOUDY    64  62  94 SW8       29.89R
$$
ABBREVIATIONS USED IN REMARKS
   TC - TEMPERATURES IN CELSIUS
  WCI - WIND CHILL INDEX
   HX - HEAT INDEX
  VSB - VISIBILITY
$$




USA.gov is the U.S. government's official web portal to all federal, state and local government web resources and services.